Weather in Seiser Alm

Italy     46°32′24″N   11°37′04″E
temp.,
°C
wind,
m/s
gust,
m/s
humid.,
%
clouds,
%
prec.,
mm/h
press.,
hPa
HPBL,
m
18 january, mon
mon1801:00−7ene228180 0.0 102437
04:00−7ene228046 0.0 102431
07:00−8ene228056 0.0 102631
10:00−4ne12725 0.0 1026152
13:000n12612 0.0 1025664
16:00−2nne11700 0.0 102521
19:00−7e22760 0.0 102834
22:00−8ene22760 0.0 102834
19 january, tue
tue1901:00−9ene22740 0.0 102832
04:00−9ene227055 0.0 102635
07:00−9ene226763 0.0 102628
10:00−5ne116121 0.0 1025104
13:00−2w115727 0.0 1022262
16:00−4w017486 0.0 102121
19:00−7ese117393 0.0 102221
22:00−8e1166100 0.0 102321
20 january, wed
wed2001:00−8e116899 0.0 102222
04:00−9e127234 0.0 102123
07:00−9e127517 0.0 102123
10:00−6nne11700 0.0 1020136
13:00−2wnw11690 0.0 1018252
16:00−3wnw018760 0.0 101651
19:00−5s009780 0.2 101732
22:00−5se119799 0.5 101624
21 january, thu
thu2101:00−5sse119798 1.0 101625
04:00−4se1197100 0.4 101423
07:00−4e1196100 0.8 101329
10:00−2n019194 0.3 1012138
13:00−1wnw119397 0.4 1010179
16:00−1wnw1198100 0.4 100990
19:00−2se1198100 0.9 100924
22:00−2se1193100 0.8 100729
22 january, fri
fri2201:00−1se1196100 2.1 100434
04:00−1ese1198100 2.6 100137
07:00−1nne1199100 6.0 100037
10:00−1nnw0199100 3.9 99972
13:00+1w1199100 4.3 998158
16:000n1199100 0.3 99884
19:00−1nnw3597100 1.9 1001250
22:00−3ne3589100 2.8 1003173